When you browse on this site, cookies collect data to enhance your experience and personalize the content and advertising you see.
Visit our Privacy Policy to learn more. By continuing to use the site, you agree to this use of cookies and data.
  • In Czech Republic
  • List of Countries
  • For 7 days
  • Water Temperature
  • Satellite Maps
  • Weather Map
  • Weather Widgets
  • user-avatar
    Login

    Hourly Weather Ischgl

    Today, 17 February, Sunday

    Time Temperature Precipitation Wind Pressure Humidity
    00:00 -7°C° 0 mm 2 mps 576 mmHg 19%
    01:00 -7°C° 0 mm 2 mps 576 mmHg 18%
    02:00 -7°C° 0 mm 2 mps 576 mmHg 18%
    03:00 -7°C° 0 mm 2 mps 576 mmHg 17%
    04:00 -8°C° 0 mm 2 mps 575 mmHg 17%
    05:00 -7°C° 0 mm 2 mps 575 mmHg 16%
    06:00 -7°C° 0 mm 2 mps 575 mmHg 15%
    07:00 -7°C° 0 mm 2 mps 575 mmHg 14%
    08:00 -5°C° 0 mm 2 mps 576 mmHg 27%
    09:00 -1°C° 0 mm 1 mps 577 mmHg 39%
    10:00 +1°C° 0 mm 1 mps 578 mmHg 51%
    11:00 +2°C° 0 mm 1 mps 578 mmHg 65%
    12:00 +2°C° 0 mm 1 mps 578 mmHg 80%
    13:00 +3°C° 0 mm 1 mps 578 mmHg 95%
    14:00 +3°C° 0 mm 1 mps 577 mmHg 85%
    15:00 +2°C° 0 mm 1 mps 577 mmHg 76%
    16:00 +2°C° 0 mm 1 mps 577 mmHg 67%
    17:00 0°C° 0 mm 1 mps 576 mmHg 60%
    18:00 -4°C° 0 mm 2 mps 575 mmHg 53%
    19:00 -6°C° 0 mm 2 mps 574 mmHg 46%
    20:00 -7°C° 0 mm 2 mps 574 mmHg 42%
    21:00 -7°C° 0 mm 2 mps 574 mmHg 38%
    22:00 -8°C° 0 mm 2 mps 574 mmHg 34%
    23:00 -8°C° 0 mm 2 mps 574 mmHg 32%

    Tomorrow, 18 February, Monday

    Time Temperature Precipitation Wind Pressure Humidity
    00:00 -9°C° 0 mm 3 mps 573 mmHg 30%
    01:00 -9°C° 0 mm 3 mps 573 mmHg 28%
    02:00 -9°C° 0 mm 3 mps 573 mmHg 28%
    03:00 -9°C° 0 mm 3 mps 573 mmHg 27%
    04:00 -9°C° 0 mm 3 mps 573 mmHg 27%
    05:00 -8°C° 0 mm 2 mps 573 mmHg 27%
    06:00 -8°C° 0 mm 2 mps 573 mmHg 28%
    07:00 -8°C° 0 mm 2 mps 573 mmHg 28%
    08:00 -6°C° 0 mm 2 mps 573 mmHg 38%
    09:00 -4°C° 0 mm 2 mps 574 mmHg 48%
    10:00 -2°C° 0 mm 2 mps 575 mmHg 59%
    11:00 -1°C° 0 mm 2 mps 575 mmHg 71%
    12:00 -1°C° 0 mm 2 mps 575 mmHg 83%
    13:00 +1°C° 0 mm 2 mps 575 mmHg 95%
    14:00 -1°C° 0 mm 2 mps 575 mmHg 91%
    15:00 -1°C° 0 mm 2 mps 574 mmHg 87%
    16:00 -1°C° 0 mm 2 mps 574 mmHg 83%
    17:00 -3°C° 0 mm 2 mps 573 mmHg 77%
    18:00 -5°C° 0 mm 2 mps 573 mmHg 72%
    19:00 -7°C° 0 mm 2 mps 572 mmHg 66%
    20:00 -7°C° 0 mm 2 mps 572 mmHg 61%
    21:00 -8°C° 0 mm 2 mps 572 mmHg 57%
    22:00 -8°C° 0 mm 2 mps 572 mmHg 52%
    23:00 -8°C° 0 mm 2 mps 572 mmHg 49%

    Day after tomorrow, 19 February, Tuesday

    Time Temperature Precipitation Wind Pressure Humidity
    00:00 -8°C° 0 mm 2 mps 572 mmHg 46%
    01:00 -9°C° 0 mm 2 mps 571 mmHg 44%
    02:00 -8°C° 0 mm 1 mps 571 mmHg 42%
    03:00 -8°C° 0 mm 1 mps 571 mmHg 41%
    04:00 -8°C° 0 mm 1 mps 571 mmHg 40%
    05:00 -9°C° 0 mm 1 mps 571 mmHg 41%
    06:00 -9°C° 0 mm 1 mps 571 mmHg 43%
    07:00 -9°C° 0 mm 0 mps 571 mmHg 44%
    08:00 -7°C° 0 mm 0 mps 572 mmHg 49%
    09:00 -5°C° 0 mm 0 mps 573 mmHg 54%
    10:00 -3°C° 0 mm 0 mps 574 mmHg 59%
    11:00 -2°C° 0 mm 0 mps 574 mmHg 66%
    12:00 -1°C° 0 mm 1 mps 574 mmHg 73%
    13:00 0°C° 0 mm 1 mps 574 mmHg 79%
    14:00 -1°C° 0 mm 1 mps 574 mmHg 79%
    15:00 -1°C° 0 mm 1 mps 574 mmHg 79%
    16:00 -1°C° 0 mm 1 mps 574 mmHg 79%
    17:00 -3°C° 0 mm 1 mps 573 mmHg 81%
    18:00 -6°C° 0 mm 0 mps 572 mmHg 83%
    19:00 -8°C° 0 mm 0 mps 571 mmHg 85%
    20:00 -8°C° 0 mm 0 mps 571 mmHg 83%
    21:00 -9°C° 0 mm 0 mps 571 mmHg 81%
    22:00 -9°C° 0 mm 1 mps 571 mmHg 79%
    23:00 -9°C° 0 mm 1 mps 571 mmHg 75%

    20 February, Wednesday

    Time Temperature Precipitation Wind Pressure Humidity
    00:00 -9°C° 0 mm 1 mps 571 mmHg 70%
    01:00 -10°C° 0 mm 1 mps 571 mmHg 66%
    02:00 -10°C° 0 mm 1 mps 571 mmHg 61%
    03:00 -10°C° 0 mm 1 mps 571 mmHg 57%
    04:00 -10°C° 0 mm 1 mps 571 mmHg 52%
    05:00 -10°C° 0 mm 1 mps 571 mmHg 49%
    06:00 -10°C° 0 mm 1 mps 571 mmHg 47%
    07:00 -10°C° 0 mm 1 mps 571 mmHg 44%
    08:00 -8°C° 0 mm 1 mps 573 mmHg 47%
    09:00 -6°C° 0 mm 0 mps 574 mmHg 50%
    10:00 -3°C° 0 mm 0 mps 575 mmHg 53%
    11:00 -3°C° 0 mm 0 mps 576 mmHg 59%
    12:00 -1°C° 0 mm 1 mps 576 mmHg 64%
    13:00 0°C° 0 mm 1 mps 576 mmHg 70%
    14:00 0°C° 0 mm 1 mps 576 mmHg 71%
    15:00 -1°C° 0 mm 1 mps 576 mmHg 72%
    16:00 -1°C° 0 mm 1 mps 576 mmHg 73%
    17:00 -3°C° 0 mm 1 mps 575 mmHg 74%
    18:00 -5°C° 0 mm 0 mps 574 mmHg 75%
    19:00 -7°C° 0 mm 0 mps 574 mmHg 75%
    20:00 -7°C° 0 mm 0 mps 574 mmHg 74%
    21:00 -7°C° 0 mm 0 mps 574 mmHg 72%
    22:00 -8°C° 0 mm 0 mps 574 mmHg 70%
    23:00 -8°C° 0 mm 0 mps 574 mmHg 68%

    21 February, Thursday

    Time Temperature Precipitation Wind Pressure Humidity
    00:00 -8°C° 0 mm 1 mps 574 mmHg 67%
    01:00 -8°C° 0 mm 1 mps 574 mmHg 65%
    02:00 -8°C° 0 mm 1 mps 574 mmHg 64%
    03:00 -8°C° 0 mm 1 mps 574 mmHg 62%
    04:00 -8°C° 0 mm 1 mps 574 mmHg 60%
    05:00 -8°C° 0 mm 1 mps 574 mmHg 60%
    06:00 -8°C° 0 mm 1 mps 574 mmHg 59%
    07:00 -8°C° 0 mm 1 mps 574 mmHg 58%
    08:00 -6°C° 0 mm 1 mps 576 mmHg 60%
    09:00 -4°C° 0 mm 1 mps 577 mmHg 63%
    10:00 -3°C° 0 mm 0 mps 578 mmHg 65%
    11:00 -1°C° 0 mm 1 mps 578 mmHg 70%
    12:00 0°C° 0 mm 1 mps 578 mmHg 75%
    13:00 0°C° 0 mm 1 mps 578 mmHg 80%
    14:00 0°C° 0 mm 1 mps 578 mmHg 81%
    15:00 0°C° 0 mm 1 mps 578 mmHg 82%
    16:00 -1°C° 0 mm 1 mps 577 mmHg 83%
    17:00 -2°C° 0 mm 1 mps 577 mmHg 85%
    18:00 -4°C° 0 mm 1 mps 576 mmHg 86%
    19:00 -6°C° 0 mm 1 mps 576 mmHg 88%
    20:00 -6°C° 0 mm 1 mps 576 mmHg 85%
    21:00 -7°C° 0 mm 1 mps 576 mmHg 82%
    22:00 -7°C° 0 mm 1 mps 576 mmHg 79%
    23:00 -7°C° 0 mm 1 mps 576 mmHg 78%

    22 February, Friday

    Time Temperature Precipitation Wind Pressure Humidity
    00:00 -8°C° 0 mm 1 mps 576 mmHg 76%
    01:00 -8°C° 0 mm 1 mps 576 mmHg 75%
    02:00 -8°C° 0 mm 1 mps 576 mmHg 75%
    03:00 -8°C° 0 mm 1 mps 576 mmHg 74%
    04:00 -8°C° 0 mm 1 mps 576 mmHg 74%
    05:00 -8°C° 0 mm 1 mps 576 mmHg 74%
    06:00 -8°C° 0 mm 1 mps 576 mmHg 75%
    07:00 -8°C° 0 mm 1 mps 576 mmHg 75%
    08:00 -7°C° 0 mm 1 mps 577 mmHg 76%
    09:00 -4°C° 0 mm 1 mps 577 mmHg 76%
    10:00 -2°C° 0 mm 1 mps 578 mmHg 76%
    11:00 -4°C° 0 mm 2 mps 578 mmHg 78%
    12:00 -3°C° 0 mm 2 mps 578 mmHg 80%
    13:00 -3°C° 0 mm 2 mps 578 mmHg 82%
    14:00 -3°C° 0 mm 2 mps 578 mmHg 83%
    15:00 -3°C° 0 mm 2 mps 578 mmHg 84%
    16:00 -4°C° 0 mm 3 mps 578 mmHg 85%
    17:00 -4°C° 0 mm 2 mps 577 mmHg 88%
    18:00 -5°C° 0 mm 2 mps 577 mmHg 91%
    19:00 -6°C° 0 mm 2 mps 577 mmHg 94%
    20:00 -7°C° 0 mm 2 mps 577 mmHg 94%
    21:00 -7°C° 0 mm 2 mps 577 mmHg 94%
    22:00 -7°C° 0 mm 2 mps 577 mmHg 94%
    23:00 -7°C° 0 mm 1 mps 576 mmHg 92%
    Show more